This demonstration page uses our WeatherBlox Daily Observations layout. Learn more.

Left ArrowRight Arrow

Hourly Observations for June 23, 2016

Temp ( °F °C ) Dew Point ( °F °C ) Humidity (%) Winds ( mph kmh ) Pressure ( in mb ) Visibility ( mi km ) Precip ( " mm )
12:51 am 00:51 Clear 88 31.1 42 5.6 20 20 NNW 13 20 29.75 1008 10 16 0.00 0.00
1:51 am 01:51 Clear 88 31.1 41 5 19 19 NNW 12 19 29.75 1007 10 16 0.00 0.00
2:51 am 02:51 Clear 88 31.1 43 6.1 21 21 NW 12 19 29.76 1008 10 16 0.00 0.00
3:51 am 03:51 Clear 88 31.1 42 5.6 20 20 NNW 10 17 29.76 1008 10 16 0.00 0.00
4:51 am 04:51 Clear 87 30.6 43 6.1 21 21 NNW 6 9 29.79 1009 10 16 0.00 0.00
5:51 am 05:51 Sunny 85 29.4 45 7.2 25 25 S 12 19 29.81 1010 10 16 0.00 0.00
6:51 am 06:51 Sunny 89 31.7 44 6.7 21 21 W 7 11 29.82 1010 10 16 0.00 0.00
7:51 am 07:51 Sunny 93 33.9 44 6.7 18 18 WNW 13 20 29.83 1010 10 16 0.00 0.00
8:51 am 08:51 Sunny 96 35.6 43 6.1 16 16 WNW 16 26 29.83 1010 10 16 0.00 0.00
9:51 am 09:51 Sunny 96 35.6 42 5.6 15 15 WNW 16 26 29.83 1010 10 16 0.00 0.00
10:51 am 10:51 Sunny 96 35.6 42 5.6 15 15 NW 13 20 29.85 1011 10 16 0.00 0.00
11:51 am 11:51 Sunny 100 37.8 42 5.6 14 14 VRB 3 6 29.83 1010 10 16 0.00 0.00
12:51 pm 12:51 Sunny 101 38.3 42 5.6 13 13 W 7 11 29.81 1010 10 16 0.00 0.00
1:51 pm 13:51 Mostly Cloudy 98 36.7 42 5.6 15 15 WSW 7 11 29.80 1009 10 16 0.00 0.00
2:51 pm 14:51 Mostly Sunny 99 37.2 41 5 14 14 Calm 29.78 1009 10 16 0.00 0.00
3:51 pm 15:51 Sunny 99 37.2 43 6.1 15 15 W 16 26 29.75 1008 10 16 0.00 0.00
4:51 pm 16:51 Sunny 99 37.2 42 5.6 14 14 W 18 30 29.73 1007 10 16 0.00 0.00
5:51 pm 17:51 Sunny 96 35.6 40 4.4 14 14 WNW 21 33 29.73 1007 10 16 0.00 0.00
6:51 pm 18:51 Sunny 95 35 41 5 15 15 NW 16 26 29.74 1007 10 16 0.00 0.00
7:51 pm 19:51 Clear 93 33.9 41 5 16 16 WNW 15 24 29.75 1008 10 16 0.00 0.00
8:51 pm 20:51 Clear 91 32.8 41 5 17 17 NW 12 19 29.77 1008 10 16 0.00 0.00
9:51 pm 21:51 Clear 90 32.2 41 5 18 18 NW 9 15 29.78 1009 10 16 0.00 0.00
10:51 pm 22:51 Clear 86 30 41 5 20 20 WNW 8 13 29.79 1009 10 16 0.00 0.00
11:51 pm 23:51 Clear 82 27.8 41 5 23 23 NNW 3 6 29.80 1009 10 16 0.00 0.00

Powered by AerisWeather